[[[{"header":{"parameterUnit":"kt","parameterCategory":2,"dx":1,"dy":1,"la1":30.253999710083008,"la2":30.299108505249023,"lo1":-89.0895004272461,"lo2":-89.04439544677734,"nx":28,"ny":28,"refTime":"2022-10-07T21:00:00:Z","depth":0,"parameterNumber":1,"parameterNumberName":"U-component_of_WINDS"},"data":[0.8099,0.826,0.8294,0.8493,0.8558,0.87,0.8762,0.8845,0.8921,0.9095,0.9201,0.9253,0.9343,0.9479,0.9596,0.9617,0.9664,0.9694,0.9713,0.9546,0.9525,0.9505,0.9468,0.9704,0.9705,0.9881,0.9883,0.9884,0.7967,0.8032,0.8148,0.8284,0.8383,0.8374,0.8481,0.8565,0.8694,0.8789,0.8896,0.9053,0.9182,0.9265,0.9395,0.9471,0.9474,0.9503,0.9498,0.9512,0.9334,0.9294,0.9498,0.9498,0.9498,0.9498,0.9498,0.9498,0.7735,0.7831,0.7933,0.806,0.8138,0.8229,0.8327,0.8389,0.8504,0.8644,0.8665,0.8811,0.8914,0.9091,0.9159,0.9274,0.9249,0.9292,0.9303,0.9313,0.9317,0.9052,0.9299,0.9298,0.9298,0.9298,0.9297,0,0.7575,0.7597,0.7712,0.7837,0.7932,0.8033,0.8132,0.8194,0.8255,0.8348,0.8486,0.8572,0.8741,0.8875,0.9007,0.907,0.9071,0.9077,0.9107,0.9097,0.907,0.9083,0.8789,0.907,0.9068,0.9067,0.9066,0.9065,0.7342,0.7451,0.7577,0.7652,0.7715,0.7838,0.7919,0.7965,0.8049,0.8178,0.8262,0.8397,0.8508,0.8725,0.8799,0.8927,0.8929,0.9031,0.8948,0.8933,0.8928,0.892,0.893,0.9046,0.9048,0.905,0.9052,0,0.7207,0.7264,0.7445,0.756,0.7592,0.7704,0.7803,0.7902,0.7953,0.8097,0.8133,0.8214,0.835,0.8408,0.8577,0.8602,0.8787,0.8787,0.875,0.8753,0.8848,0.8838,0.9155,0.9198,0.8955,0.8957,0.8959,0,0.703,0.7173,0.7249,0.7352,0.7511,0.7555,0.7712,0.7771,0.7862,0.7976,0.7987,0.8094,0.8152,0.8268,0.8307,0.8469,0.8502,0.8531,0.8539,0.8529,0.8525,0.8575,0.8563,0.8558,0.8556,0.8554,0.8553,0,0.6811,0.7022,0.7188,0.7245,0.7384,0.7461,0.7523,0.7625,0.7705,0.7818,0.787,0.8,0.8071,0.8171,0.822,0.8161,0.842,0.835,0.845,0.8449,0.8505,0.85,0.8767,0.8551,0.8551,0.855,0.8549,0,0.6677,0.6789,0.7024,0.7138,0.7192,0.7303,0.7432,0.7541,0.7649,0.768,0.7771,0.7785,0.7934,0.7859,0.8063,0.7972,0.8041,0.8084,0.8092,0.8108,0.8023,0.8163,0.8412,0.8439,0.8123,0.8119,0.8116,0,0.6409,0.6662,0.6701,0.6924,0.7048,0.705,0.7175,0.7271,0.7324,0.7437,0.7496,0.7627,0.7584,0.7634,0.7727,0.7794,0.7912,0.778,0.7944,0.7949,0.7912,0.8142,0.8163,0.8351,0.8072,0.8076,0.808,0,0.621,0.6377,0.6414,0.6481,0.6615,0.6721,0.6864,0.7003,0.7076,0.7185,0.7306,0.7493,0.7467,0.755,0.7577,0.7672,0.7833,0.7633,0.7636,0.7665,0.8055,0.8074,0.8105,0.7831,0.7836,0.7841,0.8044,0,0.599,0.6125,0.6229,0.6378,0.6469,0.6614,0.6675,0.6763,0.6778,0.6831,0.7012,0.711,0.7255,0.7307,0.7325,0.7523,0.7499,0.7472,0.7404,0.7555,0.7623,0.7652,0.7296,0.7294,0.7293,0.7292,0,0,0.5719,0.5914,0.5954,0.6095,0.6174,0.6176,0.6324,0.6403,0.6561,0.6616,0.6578,0.6856,0.6939,0.7153,0.7205,0.7264,0.7305,0.7252,0.7483,0.7504,0.7524,0.7596,0.7624,0.729,0.7289,0.7289,0.7288,0,0.5652,0.5733,0.5879,0.596,0.6083,0.6132,0.6167,0.629,0.6332,0.6511,0.6512,0.6628,0.6852,0.6938,0.7011,0.7227,0.7222,0.7266,0.736,0.7467,0.749,0.751,0.7585,0.7612,0.7285,0.7285,0.7285,0,0.5465,0.5554,0.5632,0.5813,0.5894,0.6024,0.5967,0.6108,0.6205,0.6204,0.6382,0.6446,0.6567,0.6762,0.6853,0.6821,0.7142,0.7054,0.7064,0.7076,0.7183,0.7211,0.7235,0.6914,0.6912,0.6911,0,0,0.5398,0.5525,0.5637,0.5803,0.5854,0.593,0.6006,0.603,0.6138,0.6182,0.6264,0.637,0.65,0.6585,0.6711,0.6917,0.6946,0.7005,0.7023,0.7037,0.7056,0.7167,0.7194,0.6905,0.6905,0.6904,0,0,0.5367,0.5503,0.5499,0.57,0.5801,0.5924,0.6024,0.6023,0.6143,0.6134,0.6184,0.6214,0.6398,0.6462,0.6375,0.6688,0.662,0.6642,0.664,0.6663,0.6681,0.6661,0.6332,0,0,0,0,0,0.5331,0.5485,0.548,0.5523,0.5755,0.5926,0.5956,0.5999,0.5948,0.6026,0.6095,0.6085,0.6424,0.6348,0.6391,0.6489,0.6828,0.6842,0.6855,0.69,0.6924,0.6944,0,0,0,0,0,0,0.5348,0.54,0.5477,0.5605,0.5658,0.5921,0.5844,0.586,0.5941,0.5936,0.6072,0.609,0.6131,0.6329,0.6367,0.6459,0.6319,0.6834,0.6845,0.6855,0.6908,0.6928,0.6944,0,0,0,0,0,0.5362,0.5404,0.5763,0.5603,0.5649,0.5743,0.5839,0.5852,0.5915,0.6023,0.604,0.594,0.6133,0.6168,0.6352,0.6441,0.6293,0.6307,0.6841,0.685,0.6858,0.6918,0,0,0,0,0,0,0.5372,0.5418,0.5773,0.5789,0.5548,0.5729,0.5759,0.5844,0.5997,0.6015,0.5893,0.5887,0.6136,0.6162,0.619,0.6431,0.6272,0.6286,0.6295,0.6848,0.6855,0.6861,0,0,0,0,0,0,0.5395,0.5431,0.5781,0.5709,0.5717,0.5716,0.5743,0.5907,0.5999,0.5859,0.5859,0.5888,0.6096,0.6159,0.618,0.6435,0.6256,0.6269,0.6279,0.6285,0.6854,0.6859,0,0,0,0,0,0,0.5411,0.5442,0.5705,0.5711,0.5718,0.5896,0.5862,0.6098,0.5935,0.5852,0.5921,0.5915,0.6093,0.6115,0.6174,0.642,0.6431,0.6256,0.6265,0.6272,0.6276,0,0,0,0,0,0,0,0.5424,0.5208,0.5681,0.5713,0.5719,0.5932,0.5937,0.5941,0.5933,0.5928,0.5923,0.5918,0.6178,0.6193,0.6208,0.6407,0,0,0.6255,0.6261,0,0,0,0,0,0,0,0,0.5197,0.5206,0.5681,0.5685,0.5688,0.5933,0.5937,0.594,0.5932,0.5928,0.5924,0.592,0.6182,0.6194,0.6206,0,0,0,0,0,0,0,0,0,0,0,0,0,0,0,0.5682,0.5684,0,0.5934,0.5936,0.5939,0.5932,0.5928,0.5925,0.5921,0.6185,0.6195,0.6205,0,0,0,0,0,0,0,0,0,0,0,0,0,0,0,0,0,0,0,0,0,0,0,0,0,0,0,0,0,0,0,0,0,0,0,0,0,0,0,0,0,0,0,0,0,0,0,0,0,0,0,0,0,0,0,0,0,0,0,0,0,0,0,0,0,0,0,0,0]}],[{"header":{"parameterUnit":"kt","parameterCategory":2,"dx":1,"dy":1,"la1":30.253999710083008,"la2":30.299108505249023,"lo1":-89.0895004272461,"lo2":-89.04439544677734,"nx":28,"ny":28,"refTime":"2022-10-07T21:00:00:Z","depth":0,"parameterNumber":2,"parameterNumberName":"V-component_of_WINDS"},"data":[2.7491,2.7656,2.7636,2.7815,2.7829,2.7947,2.7984,2.8029,2.8061,2.82,2.8277,2.8278,2.8303,2.8391,2.8473,2.8471,2.8503,2.8572,2.8556,2.8269,2.8228,2.8189,2.8144,2.8582,2.8582,2.8852,2.8854,2.8856,2.7266,2.728,2.7373,2.7449,2.7526,2.7447,2.7502,2.7571,2.7681,2.7725,2.7802,2.7925,2.8021,2.8025,2.8113,2.8188,2.8154,2.8212,2.8201,2.8205,2.79,2.7853,2.8236,2.8236,2.8236,2.8235,2.8235,2.8235,2.6851,2.6953,2.6988,2.7088,2.7123,2.7175,2.7269,2.7267,2.7358,2.745,2.7416,2.7541,2.7582,2.7685,2.7716,2.7811,2.7745,2.7802,2.7815,2.7827,2.7839,2.7432,2.7828,2.7827,2.7826,2.7825,2.7824,0,2.6538,2.6515,2.6606,2.6688,2.6762,2.6827,2.6883,2.6942,2.6893,2.6973,2.7084,2.7146,2.7268,2.737,2.7453,2.7475,2.74,2.7396,2.7433,2.7444,2.7441,2.7433,2.6926,2.7384,2.738,2.7377,2.7375,2.7373,2.6108,2.6235,2.6268,2.6333,2.636,2.6469,2.653,2.6479,2.6545,2.6609,2.6704,2.6808,2.6888,2.7073,2.7072,2.7165,2.7129,2.7303,2.7143,2.7148,2.7119,2.7107,2.7115,2.7333,2.7338,2.7342,2.7346,0,2.5865,2.5839,2.6031,2.6053,2.6062,2.6197,2.6215,2.6319,2.6309,2.6449,2.6479,2.6464,2.6577,2.6549,2.6676,2.6657,2.6869,2.6838,2.6849,2.6838,2.6983,2.6966,2.7481,2.7541,2.7099,2.7103,2.7107,0,2.5483,2.5655,2.5603,2.5717,2.5903,2.5847,2.6033,2.6042,2.608,2.619,2.6104,2.621,2.6159,2.6261,2.6235,2.6405,2.6433,2.6425,2.6414,2.6427,2.6427,2.6457,2.6432,2.64,2.6397,2.6395,2.6393,0,2.5099,2.5279,2.5464,2.55,2.5544,2.5633,2.5656,2.5699,2.5762,2.584,2.5879,2.5977,2.6028,2.6103,2.6067,2.5957,2.628,2.6122,2.627,2.6271,2.6338,2.6333,2.6802,2.639,2.6389,2.6388,2.6387,0,2.4785,2.4865,2.5143,2.5173,2.5223,2.5349,2.5436,2.5539,2.5592,2.5582,2.5645,2.5583,2.5739,2.5582,2.5792,2.5657,2.5712,2.5722,2.5732,2.5738,2.5561,2.5817,2.6275,2.6316,2.5749,2.5744,2.5739,0,2.4344,2.4621,2.4574,2.4842,2.4964,2.4852,2.4992,2.5043,2.5043,2.5145,2.5145,2.5266,2.5146,2.5179,2.5288,2.5291,2.5467,2.5269,2.5409,2.5414,2.5386,2.5809,2.5879,2.6179,2.5671,2.5678,2.5684,0,2.4,2.4055,2.4108,2.4143,2.4206,2.4312,2.4475,2.4581,2.465,2.4725,2.4854,2.5031,2.4941,2.5002,2.4964,2.5079,2.5347,2.497,2.497,2.5029,2.564,2.5702,2.5753,2.5295,2.5304,2.531,2.563,0,2.351,2.365,2.3792,2.3886,2.3965,2.4136,2.4106,2.4192,2.4144,2.414,2.4338,2.4382,2.4495,2.4551,2.4511,2.4786,2.4733,2.4642,2.4482,2.4764,2.4868,2.4911,2.4328,2.4324,2.432,2.4316,0,0,2.309,2.329,2.3239,2.3395,2.3456,2.3342,2.3525,2.3574,2.3678,2.3721,2.3633,2.3887,2.3929,2.4171,2.4257,2.4309,2.4352,2.4258,2.4633,2.4668,2.4701,2.4812,2.4858,2.4309,2.4308,2.4306,2.4305,0,2.2903,2.2948,2.3133,2.3179,2.3247,2.3235,2.328,2.3328,2.3335,2.3534,2.3435,2.3553,2.3765,2.3814,2.3868,2.4229,2.4147,2.4268,2.4464,2.4593,2.4634,2.467,2.4788,2.4832,2.4295,2.4296,2.4296,0,2.255,2.2585,2.2674,2.2816,2.2861,2.2996,2.282,2.2975,2.3073,2.2945,2.3143,2.3165,2.3235,2.3474,2.3581,2.3503,2.396,2.3818,2.3843,2.3852,2.3975,2.4025,2.4069,2.349,2.3487,2.3485,0,0,2.2393,2.2526,2.2549,2.2775,2.2809,2.2796,2.2868,2.2828,2.2894,2.2921,2.2946,2.3013,2.3132,2.3214,2.3327,2.3597,2.3602,2.372,2.3758,2.3789,2.3815,2.3947,2.3996,2.3474,2.3474,2.3474,0,0,2.2318,2.2353,2.2294,2.2552,2.2616,2.2655,2.2793,2.2722,2.2822,2.2799,2.2743,2.2759,2.2983,2.3011,2.2875,2.3269,2.3113,2.3145,2.3242,2.329,2.3327,2.3313,2.2702,0,0,0,0,0,2.2112,2.2347,2.2293,2.2333,2.2517,2.2685,2.2708,2.2666,2.2552,2.2661,2.267,2.2583,2.2923,2.2802,2.2842,2.2993,2.3341,2.3365,2.3387,2.3575,2.3625,2.3667,0,0,0,0,0,0,2.2127,2.2175,2.2287,2.2337,2.2378,2.2676,2.2474,2.2469,2.2539,2.2519,2.2583,2.2585,2.2553,2.2778,2.2816,2.2959,2.2689,2.335,2.3371,2.3389,2.3592,2.3633,2.3668,0,0,0,0,0,2.2139,2.2177,2.2485,2.2333,2.2369,2.2368,2.2465,2.2459,2.2513,2.253,2.2529,2.2474,2.2559,2.2587,2.28,2.2943,2.2663,2.2677,2.3364,2.3379,2.3393,2.3612,0,0,0,0,0,0,2.2147,2.2174,2.2491,2.25,2.2242,2.2351,2.2366,2.2451,2.2519,2.252,2.2417,2.2401,2.2566,2.2586,2.2609,2.294,2.2642,2.2656,2.2665,2.3376,2.3388,2.3399,0,0,0,0,0,0,2.2152,2.2183,2.2495,2.2383,2.2378,2.2335,2.2349,2.2527,2.2521,2.2402,2.2389,2.2409,2.2532,2.2587,2.2604,2.2883,2.2626,2.264,2.2649,2.2655,2.3386,2.3395,0,0,0,0,0,0,2.2164,2.219,2.238,2.2377,2.2372,2.2473,2.2491,2.2683,2.2423,2.2401,2.2398,2.2387,2.2536,2.2552,2.2601,2.2874,2.2881,2.2626,2.2636,2.2642,2.2647,0,0,0,0,0,0,0,2.2174,2.2012,2.2436,2.2372,2.2368,2.2585,2.2588,2.259,2.242,2.241,2.2401,2.2392,2.2548,2.2563,2.2578,2.2867,0,0,2.2625,2.2632,0,0,0,0,0,0,0,0,2.2,2.2009,2.2436,2.2438,2.244,2.2585,2.2587,2.259,2.2418,2.2411,2.2403,2.2395,2.2552,2.2564,2.2576,0,0,0,0,0,0,0,0,0,0,0,0,0,0,0,2.2437,2.2438,0,2.2586,2.2587,2.2589,2.2417,2.2411,2.2404,2.2398,2.2556,2.2565,2.2576,0,0,0,0,0,0,0,0,0,0,0,0,0,0,0,0,0,0,0,0,0,0,0,0,0,0,0,0,0,0,0,0,0,0,0,0,0,0,0,0,0,0,0,0,0,0,0,0,0,0,0,0,0,0,0,0,0,0,0,0,0,0,0,0,0,0,0,0,0]}]]]